Weather History for Peachtree City, GA

Change the Weather History Date:

Sunday, August 25, 2013

  Actual Average Record
Temperature  
Mean Temperature 73 °F 78 °F  
Max Temperature 83 °F 89 °F 96 °F (2011)
Min Temperature 62 °F 67 °F 55 °F (1997)
Degree Days  
Heating Degree Days 0 0  
Month to date heating degree days 0 0  
Since 1 June heating degree days 0 1  
Since 1 July heating degree days 0 0  
Cooling Degree Days 8 13  
Month to date cooling degree days 306 345  
Year to date cooling degree days 1189 1305  
Since 1 June cooling degree days 1043 1115  
Growing Degree Days 23 (Base 50)    
Moisture  
Dew Point 63 °F    
Average Humidity 74    
Maximum Humidity 100    
Minimum Humidity 47    
Precipitation  
Precipitation 0.00 in 0.16 in 0.41 in (2008)
Month to date precipitation 2.90 3.45  
Year to date precipitation 25.87 33.86  
Snow  
Snow 0.00 in - - ()
Month to date snowfall 0.0  
Since 1 June snowfall 0.0  
Since 1 July snowfall 0.0  
Snow Depth 0.00 in    
Sea Level Pressure  
Sea Level Pressure 30.29 in    
Wind  
Wind Speed 4 mph (East)    
Max Wind Speed 13 mph    
Max Gust Speed 20 mph    
Visibility 9 miles    
Events      
T = Trace of Precipitation, MM = Missing Value Source: NWS Daily Summary

Daily Weather History Graph

Daily Weather History Graph

Search for Another Location

Airport:

Trip Planner

Search our weather history database for the weather conditions in past years. The results will help you decide how hot, cold, wet, or windy it might be!

Date:

Astronomy

Aug. 25, 2013 Rise Set
Actual Time 7:07 AM EDT 8:12 PM EDT
Civil Twilight 6:42 AM EDT 8:37 PM EDT
Nautical Twilight 6:11 AM EDT 9:08 PM EDT
Astronomical Twilight 5:40 AM EDT 9:39 PM EDT
Moon 11:01 PM EDT (8/25) 11:50 AM EDT (8/25)
Length of Visible Light 13h 55m
Length of Day
13h 04m
Waning Gibbous, 76% of the Moon is Illuminated
Aug 25
Waning Gibbous
Aug 28
Last Quarter
Sep 5
New
Sep 12
First Quarter
Sep 19
Full

Hourly Weather History & Observations

Time (EDT) Temp. Heat Index Dew Point Humidity Pressure Visibility Wind Dir Wind Speed Gust Speed Precip Events Conditions
12:53 AM 69.1 °F - 66.9 °F 93% 30.25 in 8.0 mi Calm Calm - N/A   Clear
1:53 AM 66.9 °F - 66.0 °F 97% 30.25 in 6.0 mi Calm Calm - N/A   Clear
2:53 AM 69.1 °F - 66.9 °F 93% 30.27 in 8.0 mi Calm Calm - N/A   Mostly Cloudy
3:53 AM 66.9 °F - 66.0 °F 97% 30.27 in 6.0 mi Calm Calm - N/A   Partly Cloudy
4:53 AM 68.0 °F - 66.0 °F 93% 30.26 in 8.0 mi Calm Calm - N/A   Scattered Clouds
5:53 AM 66.9 °F - 64.9 °F 93% 30.27 in 8.0 mi Calm Calm - N/A   Clear
6:53 AM 64.9 °F - 64.0 °F 97% 30.28 in 6.0 mi Calm Calm - N/A   Clear
7:53 AM 68.0 °F - 64.9 °F 90% 30.31 in 9.0 mi Calm Calm - N/A   Clear
8:53 AM 71.1 °F - 64.0 °F 78% 30.32 in 10.0 mi ENE 4.6 mph - N/A   Clear
9:53 AM 73.9 °F - 64.9 °F 73% 30.33 in 10.0 mi ESE 8.1 mph - N/A   Clear
10:53 AM 75.9 °F - 63.0 °F 64% 30.35 in 10.0 mi ESE 12.7 mph 18.4 mph N/A   Clear
11:53 AM 77.0 °F - 61.0 °F 58% 30.35 in 10.0 mi East 6.9 mph - N/A   Overcast
12:53 PM 80.1 °F 81.1 °F 61.0 °F 52% 30.32 in 10.0 mi East 8.1 mph - N/A   Scattered Clouds
1:53 PM 82.0 °F 82.4 °F 60.1 °F 47% 30.30 in 10.0 mi East 9.2 mph - N/A   Clear
2:53 PM 82.9 °F 83.3 °F 61.0 °F 47% 30.28 in 10.0 mi East 6.9 mph 19.6 mph N/A   Partly Cloudy
3:53 PM 82.9 °F 83.3 °F 61.0 °F 47% 30.25 in 10.0 mi Variable 5.8 mph 16.1 mph N/A   Partly Cloudy
4:53 PM 80.1 °F 81.1 °F 61.0 °F 52% 30.25 in 10.0 mi East 5.8 mph - N/A   Scattered Clouds
5:53 PM 82.0 °F 82.4 °F 60.1 °F 47% 30.24 in 10.0 mi ENE 8.1 mph - N/A   Clear
6:53 PM 80.1 °F 80.9 °F 60.1 °F 50% 30.25 in 10.0 mi East 5.8 mph - N/A   Partly Cloudy
7:53 PM 77.0 °F - 62.1 °F 60% 30.27 in 10.0 mi East 6.9 mph - N/A   Clear
8:53 PM 73.0 °F - 62.1 °F 68% 30.29 in 10.0 mi East 4.6 mph - N/A   Clear
9:53 PM 66.9 °F - 64.9 °F 93% 30.30 in 10.0 mi Calm Calm - N/A   Clear
10:53 PM 64.9 °F - 63.0 °F 93% 30.31 in 10.0 mi Calm Calm - N/A   Clear
11:53 PM 63.0 °F - 62.1 °F 97% 30.31 in 10.0 mi Calm Calm - N/A   Clear